This is the latest recevied weather packets stored in our database for station/object KG5WBN. If no packets are shown the sender has not sent any weather packets the latest 10 day(s).
| Time | Temp. | Humidity | Pressure | Rain* | Wind** | Luminosity | Snow |
|---|---|---|---|---|---|---|---|
| 1777992749 | 26.11° C | 40% | 1012.9 hPa | 0 mm | - | 239 W/m² | - |
| 1777992446 | 26.11° C | 41% | 1012.9 hPa | 0 mm | - | 237 W/m² | - |
| 1777992144 | 25° C | 42% | 1012.9 hPa | 0 mm | - | 221 W/m² | - |
| 1777991841 | 25° C | 43% | 1012.9 hPa | 0 mm | - | 212 W/m² | - |
| 1777991538 | 25° C | 44% | 1012.9 hPa | 0 mm | - | 169 W/m² | - |
| 1777991235 | 25.56° C | 42% | 1012.9 hPa | 0 mm | - | 222 W/m² | - |
| 1777990932 | 25° C | 44% | 1012.9 hPa | 0 mm | - | 203 W/m² | - |
| 1777990630 | 25° C | 47% | 1012.9 hPa | 0 mm | - | 200 W/m² | - |
| 1777990327 | 25° C | 47% | 1012.9 hPa | 0 mm | - | 84 W/m² | - |
| 1777990023 | 25° C | 48% | 1012.9 hPa | 0 mm | - | 96 W/m² | - |
| 1777989720 | 25° C | 47% | 1012.9 hPa | 0 mm | - | 91 W/m² | - |
| 1777989416 | 25° C | 49% | 1012.9 hPa | 0 mm | - | 88 W/m² | - |
| 1777989113 | 25° C | 50% | 1012.9 hPa | 0 mm | - | 144 W/m² | - |
| 1777988809 | 25° C | 53% | 1012.9 hPa | 0 mm | - | 91 W/m² | - |
| 1777988507 | 24.44° C | 54% | 1012.9 hPa | 0 mm | - | 107 W/m² | - |
| 1777988203 | 23.89° C | 55% | 1012.5 hPa | 0 mm | - | 57 W/m² | - |
| 1777987899 | 23.89° C | 56% | 1012.5 hPa | 0 mm | - | 55 W/m² | - |
| 1777987595 | 23.89° C | 57% | 1012.2 hPa | 0 mm | - | 72 W/m² | - |
| 1777987293 | 23.89° C | 58% | 1012.2 hPa | 0 mm | - | 62 W/m² | - |
| 1777986989 | 23.33° C | 58% | 1012.5 hPa | 0 mm | - | 50 W/m² | - |
| 1777986687 | 23.33° C | 60% | 1012.2 hPa | 0 mm | - | 52 W/m² | - |
| 1777986386 | 22.22° C | 60% | 1012.5 hPa | 0 mm | - | 46 W/m² | - |
| 1777986084 | 21.67° C | 62% | 1012.5 hPa | 0 mm | - | 41 W/m² | - |
| 1777985780 | 21.67° C | 62% | 1012.5 hPa | 0 mm | - | 38 W/m² | - |
| 1777985477 | 21.67° C | 62% | 1012.5 hPa | 0 mm | - | 38 W/m² | - |
* Rain latest hour (hover to see other rain measurements)
** Current wind speed in m/s (hover to see current wind gust speed)